When you browse on this site, cookies collect data to enhance your experience and personalize the content and advertising you see.
Visit our Privacy Policy to learn more. By continuing to use the site, you agree to this use of cookies and data.
  • In Germany
  • List of Countries
  • For 7 days
  • Water Temperature
  • Satellite Maps
  • Weather Map
  • Weather Widgets
  • user-avatar
    Login

    Hourly Weather Sydney

    Today, 25 April, Thursday

    Time Temperature Precipitation Wind Pressure Humidity
    00:00 +20°C° 0 mm 2 mps 765 mmHg 80%
    01:00 +19°C° 0 mm 2 mps 765 mmHg 81%
    02:00 +19°C° 0 mm 2 mps 764 mmHg 82%
    03:00 +19°C° 0 mm 2 mps 764 mmHg 83%
    04:00 +19°C° 0 mm 2 mps 764 mmHg 84%
    05:00 +19°C° 0 mm 2 mps 764 mmHg 83%
    06:00 +18°C° 0 mm 2 mps 764 mmHg 83%
    07:00 +18°C° 0 mm 2 mps 765 mmHg 82%
    08:00 +21°C° 0 mm 2 mps 764 mmHg 72%
    09:00 +24°C° 0 mm 1 mps 764 mmHg 62%
    10:00 +26°C° 0 mm 1 mps 764 mmHg 52%
    11:00 +27°C° 0 mm 1 mps 764 mmHg 49%
    12:00 +28°C° 0 mm 2 mps 763 mmHg 46%
    13:00 +29°C° 0 mm 2 mps 763 mmHg 43%
    14:00 +28°C° 0 mm 2 mps 763 mmHg 48%
    15:00 +27°C° 0 mm 3 mps 762 mmHg 53%
    16:00 +26°C° 0 mm 3 mps 762 mmHg 58%
    17:00 +25°C° 0 mm 3 mps 762 mmHg 64%
    18:00 +24°C° 0 mm 2 mps 762 mmHg 71%
    19:00 +21°C° 0 mm 2 mps 762 mmHg 78%
    20:00 +21°C° 0 mm 2 mps 762 mmHg 78%
    21:00 +21°C° 0 mm 2 mps 762 mmHg 78%
    22:00 +21°C° 0 mm 2 mps 762 mmHg 78%
    23:00 +21°C° 0 mm 2 mps 762 mmHg 79%

    Tomorrow, 26 April, Friday

    Time Temperature Precipitation Wind Pressure Humidity
    00:00 +20°C° 0 mm 2 mps 762 mmHg 80%
    01:00 +20°C° 0 mm 2 mps 761 mmHg 80%
    02:00 +20°C° 0 mm 2 mps 761 mmHg 80%
    03:00 +19°C° 0 mm 2 mps 761 mmHg 79%
    04:00 +19°C° 0 mm 2 mps 760 mmHg 78%
    05:00 +19°C° 0 mm 3 mps 760 mmHg 76%
    06:00 +19°C° 0 mm 3 mps 760 mmHg 74%
    07:00 +19°C° 0 mm 3 mps 760 mmHg 72%
    08:00 +21°C° 0 mm 4 mps 760 mmHg 63%
    09:00 +23°C° 0 mm 4 mps 760 mmHg 54%
    10:00 +26°C° 0 mm 4 mps 760 mmHg 44%
    11:00 +27°C° 0 mm 4 mps 760 mmHg 39%
    12:00 +28°C° 0 mm 4 mps 759 mmHg 33%
    13:00 +30°C° 0 mm 4 mps 758 mmHg 27%
    14:00 +29°C° 0 mm 4 mps 758 mmHg 27%
    15:00 +29°C° 0 mm 4 mps 758 mmHg 27%
    16:00 +28°C° 0 mm 4 mps 758 mmHg 26%
    17:00 +26°C° 0 mm 5 mps 758 mmHg 31%
    18:00 +23°C° 0 mm 7 mps 759 mmHg 36%
    19:00 +22°C° 0 mm 8 mps 760 mmHg 41%
    20:00 +20°C° 0 mm 8 mps 761 mmHg 44%
    21:00 +18°C° 0 mm 8 mps 762 mmHg 47%
    22:00 +17°C° 0 mm 8 mps 763 mmHg 51%
    23:00 +16°C° 0 mm 8 mps 763 mmHg 49%

    Day after tomorrow, 27 April, Saturday

    Time Temperature Precipitation Wind Pressure Humidity
    00:00 +15°C° 0 mm 7 mps 764 mmHg 48%
    01:00 +14°C° 0 mm 6 mps 764 mmHg 47%
    02:00 +14°C° 0 mm 6 mps 764 mmHg 48%
    03:00 +12°C° 0 mm 7 mps 765 mmHg 50%
    04:00 +12°C° 0 mm 7 mps 765 mmHg 51%
    05:00 +13°C° 0 mm 6 mps 765 mmHg 50%
    06:00 +11°C° 0 mm 6 mps 766 mmHg 49%
    07:00 +11°C° 0 mm 6 mps 767 mmHg 48%
    08:00 +13°C° 0 mm 6 mps 767 mmHg 45%
    09:00 +14°C° 0 mm 5 mps 767 mmHg 41%
    10:00 +15°C° 0 mm 5 mps 767 mmHg 38%
    11:00 +17°C° 0 mm 4 mps 767 mmHg 36%
    12:00 +18°C° 0 mm 4 mps 766 mmHg 33%
    13:00 +19°C° 0 mm 3 mps 766 mmHg 31%
    14:00 +19°C° 0 mm 3 mps 766 mmHg 32%
    15:00 +19°C° 0 mm 3 mps 766 mmHg 33%
    16:00 +19°C° 0 mm 2 mps 766 mmHg 35%
    17:00 +18°C° 0 mm 2 mps 766 mmHg 39%
    18:00 +17°C° 0 mm 2 mps 766 mmHg 44%
    19:00 +16°C° 0 mm 2 mps 767 mmHg 49%
    20:00 +15°C° 0 mm 2 mps 767 mmHg 50%
    21:00 +15°C° 0 mm 2 mps 768 mmHg 52%
    22:00 +15°C° 0 mm 2 mps 768 mmHg 54%
    23:00 +14°C° 0 mm 2 mps 767 mmHg 55%

    28 April, Sunday

    Time Temperature Precipitation Wind Pressure Humidity
    00:00 +12°C° 0 mm 3 mps 767 mmHg 56%
    01:00 +12°C° 0 mm 3 mps 767 mmHg 57%
    02:00 +12°C° 0 mm 3 mps 767 mmHg 56%
    03:00 +11°C° 0 mm 3 mps 766 mmHg 55%
    04:00 +11°C° 0 mm 3 mps 766 mmHg 54%
    05:00 +11°C° 0 mm 3 mps 766 mmHg 54%
    06:00 +11°C° 0 mm 3 mps 766 mmHg 55%
    07:00 +10°C° 0 mm 3 mps 766 mmHg 55%
    08:00 +13°C° 0 mm 3 mps 766 mmHg 50%
    09:00 +16°C° 0 mm 3 mps 766 mmHg 45%
    10:00 +18°C° 0 mm 3 mps 766 mmHg 40%
    11:00 +19°C° 0 mm 3 mps 765 mmHg 36%
    12:00 +21°C° 0 mm 2 mps 765 mmHg 32%
    13:00 +24°C° 0 mm 2 mps 764 mmHg 27%
    14:00 +24°C° 0 mm 2 mps 764 mmHg 28%
    15:00 +24°C° 0 mm 2 mps 764 mmHg 29%
    16:00 +24°C° 0 mm 2 mps 764 mmHg 30%
    17:00 +23°C° 0 mm 2 mps 764 mmHg 36%
    18:00 +21°C° 0 mm 1 mps 765 mmHg 42%
    19:00 +19°C° 0 mm 1 mps 765 mmHg 48%
    20:00 +18°C° 0 mm 2 mps 766 mmHg 49%
    21:00 +17°C° 0 mm 3 mps 766 mmHg 50%
    22:00 +16°C° 0 mm 3 mps 766 mmHg 51%
    23:00 +16°C° 0 mm 3 mps 766 mmHg 52%

    29 April, Monday

    Time Temperature Precipitation Wind Pressure Humidity
    00:00 +14°C° 0 mm 3 mps 766 mmHg 53%
    01:00 +13°C° 0 mm 3 mps 766 mmHg 55%
    02:00 +13°C° 0 mm 3 mps 766 mmHg 56%
    03:00 +12°C° 0 mm 3 mps 766 mmHg 58%
    04:00 +12°C° 0 mm 3 mps 766 mmHg 59%
    05:00 +12°C° 0 mm 3 mps 767 mmHg 61%
    06:00 +11°C° 0 mm 3 mps 767 mmHg 63%
    07:00 +11°C° 0 mm 3 mps 768 mmHg 64%
    08:00 +14°C° 0 mm 2 mps 768 mmHg 61%
    09:00 +17°C° 0 mm 2 mps 768 mmHg 57%
    10:00 +19°C° 0 mm 2 mps 768 mmHg 54%
    11:00 +20°C° 0 mm 2 mps 768 mmHg 51%
    12:00 +21°C° 0 mm 3 mps 767 mmHg 49%
    13:00 +22°C° 0 mm 3 mps 767 mmHg 47%
    14:00 +22°C° 0 mm 3 mps 767 mmHg 51%
    15:00 +21°C° 0 mm 4 mps 767 mmHg 55%
    16:00 +21°C° 0 mm 4 mps 767 mmHg 59%
    17:00 +20°C° 0 mm 3 mps 767 mmHg 63%
    18:00 +19°C° 0 mm 3 mps 768 mmHg 67%
    19:00 +18°C° 0 mm 3 mps 769 mmHg 71%
    20:00 +18°C° 0 mm 2 mps 769 mmHg 72%
    21:00 +18°C° 0 mm 2 mps 769 mmHg 74%
    22:00 +17°C° 0 mm 2 mps 769 mmHg 75%
    23:00 +17°C° 0 mm 2 mps 769 mmHg 76%

    30 April, Tuesday

    Time Temperature Precipitation Wind Pressure Humidity
    00:00 +17°C° 0 mm 2 mps 768 mmHg 77%
    01:00 +17°C° 0 mm 2 mps 768 mmHg 78%
    02:00 +16°C° 0 mm 2 mps 768 mmHg 81%
    03:00 +16°C° 0 mm 2 mps 768 mmHg 83%
    04:00 +15°C° 0 mm 2 mps 767 mmHg 85%
    05:00 +15°C° 0 mm 2 mps 768 mmHg 86%
    06:00 +15°C° 0 mm 2 mps 768 mmHg 87%
    07:00 +15°C° 0 mm 2 mps 768 mmHg 88%
    08:00 +18°C° 0 mm 1 mps 768 mmHg 78%
    09:00 +20°C° 0 mm 1 mps 768 mmHg 69%
    10:00 +22°C° 0 mm 1 mps 768 mmHg 59%
    11:00 +23°C° 0 mm 1 mps 767 mmHg 56%
    12:00 +24°C° 0 mm 2 mps 766 mmHg 52%
    13:00 +25°C° 0 mm 2 mps 765 mmHg 49%
    14:00 +24°C° 0 mm 3 mps 765 mmHg 52%
    15:00 +24°C° 0 mm 3 mps 765 mmHg 54%
    16:00 +23°C° 0 mm 4 mps 764 mmHg 57%
    17:00 +22°C° 0 mm 4 mps 764 mmHg 63%
    18:00 +21°C° 0 mm 5 mps 765 mmHg 69%
    19:00 +20°C° 0 mm 5 mps 765 mmHg 75%
    20:00 +20°C° 0 mm 5 mps 765 mmHg 77%
    21:00 +19°C° 0 mm 5 mps 765 mmHg 79%
    22:00 +19°C° 0 mm 4 mps 765 mmHg 81%
    23:00 +18°C° 0 mm 4 mps 765 mmHg 82%
    Show more